When you browse on this site, cookies collect data to enhance your experience and personalize the content and advertising you see.
Visit our Privacy Policy to learn more. By continuing to use the site, you agree to this use of cookies and data.
  • In Latvia
  • List of Countries
  • For 7 days
  • Water Temperature
  • Satellite Maps
  • Weather Map
  • Weather Widgets
  • user-avatar
    Login

    Hourly Weather Surava

    Today, 23 May, Thursday

    Time Temperature Precipitation Wind Pressure Humidity
    00:00 +13°C° 0 mm 3 mps 743 mmHg 88%
    01:00 +13°C° 0 mm 3 mps 743 mmHg 87%
    02:00 +12°C° 0 mm 3 mps 743 mmHg 86%
    03:00 +12°C° 0 mm 3 mps 743 mmHg 85%
    04:00 +12°C° 0 mm 3 mps 742 mmHg 83%
    05:00 +12°C° 0 mm 3 mps 742 mmHg 82%
    06:00 +13°C° 0 mm 3 mps 742 mmHg 80%
    07:00 +16°C° 0 mm 3 mps 742 mmHg 75%
    08:00 +17°C° 0 mm 3 mps 741 mmHg 71%
    09:00 +19°C° 0 mm 3 mps 741 mmHg 66%
    10:00 +20°C° 0 mm 4 mps 741 mmHg 62%
    11:00 +22°C° 0 mm 4 mps 740 mmHg 59%
    12:00 +23°C° 0 mm 4 mps 740 mmHg 55%
    13:00 +23°C° 0.1 mm 4 mps 740 mmHg 56%
    14:00 +23°C° 0.1 mm 4 mps 740 mmHg 57%
    15:00 +23°C° 0.1 mm 4 mps 739 mmHg 58%
    16:00 +24°C° 0.1 mm 3 mps 739 mmHg 62%
    17:00 +24°C° 0.1 mm 3 mps 739 mmHg 65%
    18:00 +24°C° 0.1 mm 2 mps 739 mmHg 69%
    19:00 +21°C° 0.2 mm 2 mps 739 mmHg 74%
    20:00 +19°C° 0.2 mm 2 mps 739 mmHg 79%
    21:00 +17°C° 0.2 mm 2 mps 739 mmHg 84%
    22:00 +17°C° 0 mm 2 mps 739 mmHg 86%
    23:00 +16°C° 0 mm 2 mps 739 mmHg 87%

    Tomorrow, 24 May, Friday

    Time Temperature Precipitation Wind Pressure Humidity
    00:00 +16°C° 0 mm 2 mps 739 mmHg 88%
    01:00 +16°C° 0 mm 2 mps 739 mmHg 89%
    02:00 +15°C° 0 mm 2 mps 739 mmHg 90%
    03:00 +15°C° 0 mm 2 mps 739 mmHg 91%
    04:00 +15°C° 0 mm 2 mps 740 mmHg 91%
    05:00 +16°C° 0 mm 2 mps 740 mmHg 91%
    06:00 +16°C° 0 mm 2 mps 740 mmHg 91%
    07:00 +18°C° 0 mm 2 mps 741 mmHg 87%
    08:00 +19°C° 0 mm 3 mps 741 mmHg 82%
    09:00 +20°C° 0 mm 3 mps 742 mmHg 78%
    10:00 +20°C° 0.2 mm 4 mps 742 mmHg 77%
    11:00 +21°C° 0.2 mm 4 mps 742 mmHg 75%
    12:00 +21°C° 0.2 mm 5 mps 742 mmHg 73%
    13:00 +21°C° 0.1 mm 5 mps 743 mmHg 71%
    14:00 +21°C° 0.1 mm 5 mps 743 mmHg 70%
    15:00 +21°C° 0.1 mm 4 mps 743 mmHg 68%
    16:00 +21°C° 0 mm 4 mps 743 mmHg 70%
    17:00 +20°C° 0 mm 4 mps 743 mmHg 71%
    18:00 +19°C° 0 mm 4 mps 743 mmHg 73%
    19:00 +18°C° 0 mm 4 mps 743 mmHg 76%
    20:00 +17°C° 0 mm 4 mps 744 mmHg 79%
    21:00 +15°C° 0 mm 4 mps 744 mmHg 83%
    22:00 +14°C° 0 mm 4 mps 744 mmHg 82%
    23:00 +14°C° 0 mm 4 mps 744 mmHg 81%

    Day after tomorrow, 25 May, Saturday

    Time Temperature Precipitation Wind Pressure Humidity
    00:00 +14°C° 0 mm 4 mps 744 mmHg 80%
    01:00 +13°C° 0 mm 4 mps 744 mmHg 79%
    02:00 +13°C° 0 mm 4 mps 744 mmHg 79%
    03:00 +13°C° 0 mm 4 mps 744 mmHg 79%
    04:00 +13°C° 0 mm 5 mps 744 mmHg 80%
    05:00 +13°C° 0 mm 5 mps 744 mmHg 81%
    06:00 +13°C° 0 mm 5 mps 744 mmHg 82%
    07:00 +14°C° 0.3 mm 5 mps 744 mmHg 80%
    08:00 +15°C° 0.3 mm 5 mps 744 mmHg 78%
    09:00 +15°C° 0.3 mm 5 mps 744 mmHg 77%
    10:00 +17°C° 0.4 mm 5 mps 744 mmHg 76%
    11:00 +19°C° 0.4 mm 5 mps 744 mmHg 76%
    12:00 +20°C° 0.4 mm 5 mps 743 mmHg 76%
    13:00 +20°C° 0.4 mm 5 mps 743 mmHg 76%
    14:00 +21°C° 0.4 mm 5 mps 743 mmHg 76%
    15:00 +22°C° 0.4 mm 5 mps 742 mmHg 76%
    16:00 +21°C° 0.7 mm 5 mps 742 mmHg 77%
    17:00 +21°C° 0.7 mm 4 mps 742 mmHg 79%
    18:00 +20°C° 0.7 mm 4 mps 741 mmHg 81%
    19:00 +19°C° 0.1 mm 4 mps 741 mmHg 85%
    20:00 +18°C° 0.1 mm 4 mps 741 mmHg 89%
    21:00 +17°C° 0.1 mm 4 mps 740 mmHg 92%
    22:00 +15°C° 0.2 mm 4 mps 740 mmHg 93%
    23:00 +16°C° 0.2 mm 3 mps 740 mmHg 94%

    26 May, Sunday

    Time Temperature Precipitation Wind Pressure Humidity
    00:00 +16°C° 0.2 mm 3 mps 740 mmHg 95%
    01:00 +14°C° 0.4 mm 3 mps 740 mmHg 95%
    02:00 +14°C° 0.4 mm 3 mps 739 mmHg 95%
    03:00 +14°C° 0.4 mm 3 mps 739 mmHg 95%
    04:00 +14°C° 0 mm 3 mps 739 mmHg 95%
    05:00 +14°C° 0 mm 3 mps 738 mmHg 94%
    06:00 +16°C° 0 mm 2 mps 738 mmHg 93%
    07:00 +17°C° 0.1 mm 2 mps 738 mmHg 90%
    08:00 +18°C° 0.1 mm 2 mps 738 mmHg 87%
    09:00 +19°C° 0.1 mm 2 mps 738 mmHg 83%
    10:00 +20°C° 1 mm 2 mps 738 mmHg 79%
    11:00 +21°C° 1 mm 2 mps 737 mmHg 75%
    12:00 +22°C° 1 mm 3 mps 737 mmHg 71%
    13:00 +22°C° 0.6 mm 3 mps 737 mmHg 70%
    14:00 +22°C° 0.6 mm 3 mps 737 mmHg 69%
    15:00 +24°C° 0.6 mm 3 mps 737 mmHg 68%
    16:00 +22°C° 1 mm 3 mps 737 mmHg 73%
    17:00 +21°C° 1 mm 3 mps 737 mmHg 77%
    18:00 +21°C° 1 mm 3 mps 737 mmHg 82%
    19:00 +19°C° 0.3 mm 3 mps 737 mmHg 85%
    20:00 +18°C° 0.3 mm 3 mps 737 mmHg 88%
    21:00 +17°C° 0.3 mm 3 mps 737 mmHg 91%
    22:00 +17°C° 0 mm 3 mps 738 mmHg 92%
    23:00 +16°C° 0 mm 3 mps 738 mmHg 93%

    27 May, Monday

    Time Temperature Precipitation Wind Pressure Humidity
    00:00 +16°C° 0 mm 3 mps 738 mmHg 93%
    01:00 +14°C° 0 mm 3 mps 738 mmHg 94%
    02:00 +13°C° 0 mm 3 mps 739 mmHg 94%
    03:00 +12°C° 0 mm 3 mps 739 mmHg 94%
    04:00 +13°C° 0 mm 3 mps 739 mmHg 93%
    05:00 +13°C° 0 mm 3 mps 739 mmHg 91%
    06:00 +13°C° 0 mm 4 mps 739 mmHg 90%
    07:00 +15°C° 0 mm 4 mps 739 mmHg 83%
    08:00 +17°C° 0 mm 5 mps 739 mmHg 76%
    09:00 +19°C° 0 mm 6 mps 739 mmHg 69%
    10:00 +17°C° 1.9 mm 6 mps 739 mmHg 75%
    11:00 +15°C° 1.9 mm 6 mps 739 mmHg 82%
    12:00 +14°C° 1.9 mm 6 mps 739 mmHg 88%
    13:00 +15°C° 0.3 mm 7 mps 739 mmHg 80%
    14:00 +15°C° 0.3 mm 8 mps 740 mmHg 71%
    15:00 +16°C° 0.3 mm 9 mps 740 mmHg 62%
    16:00 +15°C° 0.3 mm 9 mps 741 mmHg 65%
    17:00 +13°C° 0.3 mm 8 mps 741 mmHg 68%
    18:00 +12°C° 0.3 mm 7 mps 742 mmHg 71%
    19:00 +11°C° 0 mm 6 mps 743 mmHg 74%
    20:00 +12°C° 0 mm 5 mps 743 mmHg 76%
    21:00 +11°C° 0 mm 4 mps 744 mmHg 79%
    22:00 +10°C° 0 mm 5 mps 744 mmHg 79%
    23:00 +9°C° 0 mm 5 mps 745 mmHg 78%

    28 May, Tuesday

    Time Temperature Precipitation Wind Pressure Humidity
    00:00 +9°C° 0 mm 5 mps 745 mmHg 78%
    01:00 +9°C° 0 mm 5 mps 745 mmHg 79%
    02:00 +9°C° 0 mm 5 mps 746 mmHg 80%
    03:00 +8°C° 0 mm 5 mps 746 mmHg 81%
    04:00 +9°C° 0 mm 5 mps 747 mmHg 82%
    05:00 +9°C° 0 mm 5 mps 747 mmHg 83%
    06:00 +9°C° 0 mm 5 mps 748 mmHg 83%
    07:00 +12°C° 0 mm 5 mps 748 mmHg 79%
    08:00 +13°C° 0 mm 5 mps 748 mmHg 75%
    09:00 +15°C° 0 mm 5 mps 748 mmHg 71%
    10:00 +16°C° 0 mm 5 mps 749 mmHg 68%
    11:00 +17°C° 0 mm 5 mps 749 mmHg 65%
    12:00 +19°C° 0 mm 5 mps 749 mmHg 62%
    13:00 +20°C° 0 mm 5 mps 749 mmHg 61%
    14:00 +20°C° 0 mm 5 mps 749 mmHg 59%
    15:00 +21°C° 0 mm 4 mps 749 mmHg 58%
    16:00 +21°C° 0 mm 4 mps 749 mmHg 61%
    17:00 +21°C° 0 mm 3 mps 749 mmHg 64%
    18:00 +20°C° 0 mm 3 mps 749 mmHg 68%
    19:00 +19°C° 0 mm 2 mps 750 mmHg 72%
    20:00 +17°C° 0 mm 2 mps 750 mmHg 77%
    21:00 +15°C° 0 mm 2 mps 750 mmHg 81%
    22:00 +15°C° 0 mm 2 mps 750 mmHg 81%
    23:00 +15°C° 0 mm 2 mps 750 mmHg 81%
    Show more